iso_date,epoch_date,Year,Hour,Min,DOY,POS_DOY,Lat,Lon,BP,Ts,Ta,has_bp,has_ts,has_ta,BuoyID,Buoy_Type,Buoy_Owner,Logistics,Hemisphere
2020-07-07T11:50:03Z,1594122604,2020,11,50,189.4931,189.4931,79.37856,4.96369,-999.00,-999.00,-999.0,no,no,no,300534060650160,NOMAD,AWI/USIABP,MOSAiC,North
2020-07-07T12:00:00Z,1594123200,2020,12,0,189.5,189.5,79.37807,4.96114,-999.00,-999.00,-999.0,no,no,no,300534060650160,NOMAD,AWI/USIABP,MOSAiC,North
2020-07-07T12:09:56Z,1594123796,2020,12,10,189.5069,189.5069,79.37806,4.96254,-999.00,-999.00,-999.0,no,no,no,300534060650160,NOMAD,AWI/USIABP,MOSAiC,North
2020-07-07T12:20:00Z,1594124401,2020,12,20,189.5139,189.5139,79.37674,4.96653,-999.00,-999.00,-999.0,no,no,no,300534060650160,NOMAD,AWI/USIABP,MOSAiC,North
2020-07-07T12:29:57Z,1594124997,2020,12,30,189.5208,189.5208,79.38735,5.0087,-999.00,-999.00,-999.0,no,no,no,300534060650160,NOMAD,AWI/USIABP,MOSAiC,North
2020-07-07T12:40:01Z,1594125602,2020,12,40,189.5278,189.5278,79.40343,5.09131,-999.00,-999.00,-999.0,no,no,no,300534060650160,NOMAD,AWI/USIABP,MOSAiC,North
2020-07-07T12:49:58Z,1594126198,2020,12,50,189.5347,189.5347,79.40445,5.09505,-999.00,-999.00,-999.0,no,no,no,300534060650160,NOMAD,AWI/USIABP,MOSAiC,North
2020-07-07T13:00:02Z,1594126803,2020,13,0,189.5417,189.5417,79.40464,5.09502,-999.00,-999.00,-999.0,no,no,no,300534060650160,NOMAD,AWI/USIABP,MOSAiC,North
2020-07-07T13:09:59Z,1594127399,2020,13,10,189.5486,189.5486,79.40459,5.09494,-999.00,-999.00,-999.0,no,no,no,300534060650160,NOMAD,AWI/USIABP,MOSAiC,North
2020-07-07T13:20:03Z,1594128004,2020,13,20,189.5556,189.5556,79.40465,5.09409,-999.00,-999.00,-999.0,no,no,no,300534060650160,NOMAD,AWI/USIABP,MOSAiC,North
2020-07-07T13:30:00Z,1594128600,2020,13,30,189.5625,189.5625,79.40458,5.09572,-999.00,-999.00,-999.0,no,no,no,300534060650160,NOMAD,AWI/USIABP,MOSAiC,North
2020-07-07T13:39:56Z,1594129196,2020,13,40,189.5694,189.5694,79.40459,5.0951,-999.00,-999.00,-999.0,no,no,no,300534060650160,NOMAD,AWI/USIABP,MOSAiC,North
2020-07-07T13:50:00Z,1594129801,2020,13,50,189.5764,189.5764,79.40462,5.09553,-999.00,-999.00,-999.0,no,no,no,300534060650160,NOMAD,AWI/USIABP,MOSAiC,North
2020-07-07T13:59:57Z,1594130397,2020,14,0,189.5833,189.5833,79.40657,5.1034,-999.00,-999.00,-999.0,no,no,no,300534060650160,NOMAD,AWI/USIABP,MOSAiC,North
2020-07-07T14:10:01Z,1594131002,2020,14,10,189.5903,189.5903,79.4133,5.13068,-999.00,-999.00,-999.0,no,no,no,300534060650160,NOMAD,AWI/USIABP,MOSAiC,North
2020-07-07T14:19:58Z,1594131598,2020,14,20,189.5972,189.5972,79.42071,5.16677,-999.00,-999.00,-999.0,no,no,no,300534060650160,NOMAD,AWI/USIABP,MOSAiC,North
2020-07-07T14:30:02Z,1594132203,2020,14,30,189.6042,189.6042,79.42751,5.19678,-999.00,-999.00,-999.0,no,no,no,300534060650160,NOMAD,AWI/USIABP,MOSAiC,North
2020-07-07T14:39:59Z,1594132799,2020,14,40,189.6111,189.6111,79.43913,5.24688,-999.00,-999.00,-999.0,no,no,no,300534060650160,NOMAD,AWI/USIABP,MOSAiC,North
2020-07-07T14:50:03Z,1594133404,2020,14,50,189.6181,189.6181,79.44519,5.2804,-999.00,-999.00,-999.0,no,no,no,300534060650160,NOMAD,AWI/USIABP,MOSAiC,North
2020-07-07T15:00:00Z,1594134000,2020,15,0,189.625,189.625,79.44743,5.29145,-999.00,-999.00,-999.0,no,no,no,300534060650160,NOMAD,AWI/USIABP,MOSAiC,North
2020-07-07T15:09:56Z,1594134596,2020,15,10,189.6319,189.6319,79.45222,5.30632,-999.00,-999.00,-999.0,no,no,no,300534060650160,NOMAD,AWI/USIABP,MOSAiC,North
2020-07-07T15:20:00Z,1594135201,2020,15,20,189.6389,189.6389,79.45214,5.30585,-999.00,-999.00,-999.0,no,no,no,300534060650160,NOMAD,AWI/USIABP,MOSAiC,North
2020-07-07T15:29:57Z,1594135797,2020,15,30,189.6458,189.6458,79.45214,5.30585,-999.00,-999.00,-999.0,no,no,no,300534060650160,NOMAD,AWI/USIABP,MOSAiC,North
2020-07-07T15:40:01Z,1594136402,2020,15,40,189.6528,189.6528,79.45214,5.30585,-999.00,-999.00,-999.0,no,no,no,300534060650160,NOMAD,AWI/USIABP,MOSAiC,North
2020-07-07T15:49:58Z,1594136998,2020,15,50,189.6597,189.6597,79.39594,5.07183,-999.00,-999.00,-999.0,no,no,no,300534060650160,NOMAD,AWI/USIABP,MOSAiC,North
2020-07-07T16:00:02Z,1594137603,2020,16,0,189.6667,189.6667,79.41326,5.14222,-999.00,-999.00,-999.0,no,no,no,300534060650160,NOMAD,AWI/USIABP,MOSAiC,North
2020-07-07T16:09:59Z,1594138199,2020,16,10,189.6736,189.6736,79.4131,5.14157,-999.00,-999.00,-999.0,no,no,no,300534060650160,NOMAD,AWI/USIABP,MOSAiC,North
2020-07-07T16:20:03Z,1594138804,2020,16,20,189.6806,189.6806,79.4131,5.14157,-999.00,-999.00,-999.0,no,no,no,300534060650160,NOMAD,AWI/USIABP,MOSAiC,North
2020-07-07T16:30:00Z,1594139400,2020,16,30,189.6875,189.6875,79.4131,5.14157,-999.00,-999.00,-999.0,no,no,no,300534060650160,NOMAD,AWI/USIABP,MOSAiC,North
2020-07-07T16:39:56Z,1594139996,2020,16,40,189.6944,189.6944,79.4131,5.14157,-999.00,-999.00,-999.0,no,no,no,300534060650160,NOMAD,AWI/USIABP,MOSAiC,North
2020-07-07T16:50:00Z,1594140601,2020,16,50,189.7014,189.7014,79.4131,5.14157,-999.00,-999.00,-999.0,no,no,no,300534060650160,NOMAD,AWI/USIABP,MOSAiC,North
2020-07-07T16:59:57Z,1594141197,2020,17,0,189.7083,189.7083,79.4131,5.14157,-999.00,-999.00,-999.0,no,no,no,300534060650160,NOMAD,AWI/USIABP,MOSAiC,North
2020-07-07T17:10:01Z,1594141802,2020,17,10,189.7153,189.7153,79.4131,5.14157,-999.00,-999.00,-999.0,no,no,no,300534060650160,NOMAD,AWI/USIABP,MOSAiC,North
2020-07-07T17:19:58Z,1594142398,2020,17,20,189.7222,189.7222,79.4131,5.14157,-999.00,-999.00,-999.0,no,no,no,300534060650160,NOMAD,AWI/USIABP,MOSAiC,North
2020-07-07T17:30:02Z,1594143003,2020,17,30,189.7292,189.7292,79.4131,5.14157,-999.00,-999.00,-999.0,no,no,no,300534060650160,NOMAD,AWI/USIABP,MOSAiC,North
2020-07-07T17:39:59Z,1594143599,2020,17,40,189.7361,189.7361,79.4131,5.14157,-999.00,-999.00,-999.0,no,no,no,300534060650160,NOMAD,AWI/USIABP,MOSAiC,North
2020-07-07T17:50:03Z,1594144204,2020,17,50,189.7431,189.7431,79.4131,5.14157,-999.00,-999.00,-999.0,no,no,no,300534060650160,NOMAD,AWI/USIABP,MOSAiC,North
2020-07-12T22:59:57Z,1594594797,2020,23,0,194.9583,194.9583,79.4131,5.14157,-999.00,-999.00,-999.0,no,no,no,300534060650160,NOMAD,AWI/USIABP,MOSAiC,North
2020-07-12T23:10:01Z,1594595402,2020,23,10,194.9653,194.9653,79.41561,3.38052,-999.00,-999.00,-999.0,no,no,no,300534060650160,NOMAD,AWI/USIABP,MOSAiC,North
2020-07-12T23:19:58Z,1594595998,2020,23,20,194.9722,194.9722,79.41529,3.38403,-999.00,-999.00,-999.0,no,no,no,300534060650160,NOMAD,AWI/USIABP,MOSAiC,North
2020-07-12T23:30:02Z,1594596603,2020,23,30,194.9792,194.9792,79.4153,3.38416,-999.00,-999.00,-999.0,no,no,no,300534060650160,NOMAD,AWI/USIABP,MOSAiC,North
2020-07-12T23:39:59Z,1594597199,2020,23,40,194.9861,194.9861,79.41531,3.38429,-999.00,-999.00,-999.0,no,no,no,300534060650160,NOMAD,AWI/USIABP,MOSAiC,North
2020-07-12T23:50:03Z,1594597804,2020,23,50,194.9931,194.9931,79.41526,3.38442,-999.00,-999.00,-999.0,no,no,no,300534060650160,NOMAD,AWI/USIABP,MOSAiC,North
2020-07-13T00:00:00Z,1594598400,2020,0,0,195.0,195.0,79.41399,3.39148,-999.00,-999.00,-999.0,no,no,no,300534060650160,NOMAD,AWI/USIABP,MOSAiC,North
2020-07-13T00:09:56Z,1594598996,2020,0,10,195.0069,195.0069,79.41233,3.40207,-999.00,-999.00,-999.0,no,no,no,300534060650160,NOMAD,AWI/USIABP,MOSAiC,North
2020-07-13T00:20:00Z,1594599601,2020,0,20,195.0139,195.0139,79.41228,3.40185,-999.00,-999.00,-999.0,no,no,no,300534060650160,NOMAD,AWI/USIABP,MOSAiC,North
2020-07-13T00:29:57Z,1594600197,2020,0,30,195.0208,195.0208,79.41225,3.40209,-999.00,-999.00,-999.0,no,no,no,300534060650160,NOMAD,AWI/USIABP,MOSAiC,North
2020-07-13T00:40:01Z,1594600802,2020,0,40,195.0278,195.0278,79.41227,3.40276,-999.00,-999.00,-999.0,no,no,no,300534060650160,NOMAD,AWI/USIABP,MOSAiC,North
2020-07-13T00:49:58Z,1594601398,2020,0,50,195.0347,195.0347,79.41216,3.40125,-999.00,-999.00,-999.0,no,no,no,300534060650160,NOMAD,AWI/USIABP,MOSAiC,North
2020-07-13T01:00:02Z,1594602003,2020,1,0,195.0417,195.0417,79.41228,3.40209,-999.00,-999.00,-999.0,no,no,no,300534060650160,NOMAD,AWI/USIABP,MOSAiC,North
2020-07-13T01:09:59Z,1594602599,2020,1,10,195.0486,195.0486,79.41222,3.40169,-999.00,-999.00,-999.0,no,no,no,300534060650160,NOMAD,AWI/USIABP,MOSAiC,North
2020-07-13T01:20:03Z,1594603204,2020,1,20,195.0556,195.0556,79.41255,3.35762,-999.00,-999.00,-999.0,no,no,no,300534060650160,NOMAD,AWI/USIABP,MOSAiC,North
2020-07-13T01:30:00Z,1594603800,2020,1,30,195.0625,195.0625,79.42567,3.2176,-999.00,-999.00,-999.0,no,no,no,300534060650160,NOMAD,AWI/USIABP,MOSAiC,North
2020-07-13T01:39:56Z,1594604396,2020,1,40,195.0694,195.0694,79.4301,3.09934,-999.00,-999.00,-999.0,no,no,no,300534060650160,NOMAD,AWI/USIABP,MOSAiC,North
2020-07-13T01:50:00Z,1594605001,2020,1,50,195.0764,195.0764,79.41815,3.16239,-999.00,-999.00,-999.0,no,no,no,300534060650160,NOMAD,AWI/USIABP,MOSAiC,North
2020-07-13T01:59:57Z,1594605597,2020,2,0,195.0833,195.0833,79.4064,3.22787,-999.00,-999.00,-999.0,no,no,no,300534060650160,NOMAD,AWI/USIABP,MOSAiC,North
2020-07-13T02:10:01Z,1594606202,2020,2,10,195.0903,195.0903,79.39529,3.29399,-999.00,-999.00,-999.0,no,no,no,300534060650160,NOMAD,AWI/USIABP,MOSAiC,North
2020-07-13T02:19:58Z,1594606798,2020,2,20,195.0972,195.0972,79.38405,3.35975,-999.00,-999.00,-999.0,no,no,no,300534060650160,NOMAD,AWI/USIABP,MOSAiC,North
2020-07-13T02:30:02Z,1594607403,2020,2,30,195.1042,195.1042,79.37309,3.42532,-999.00,-999.00,-999.0,no,no,no,300534060650160,NOMAD,AWI/USIABP,MOSAiC,North
2020-07-13T02:39:59Z,1594607999,2020,2,40,195.1111,195.1111,79.36177,3.48949,-999.00,-999.00,-999.0,no,no,no,300534060650160,NOMAD,AWI/USIABP,MOSAiC,North
2020-07-13T02:50:03Z,1594608604,2020,2,50,195.1181,195.1181,79.36611,3.56642,-999.00,-999.00,-999.0,no,no,no,300534060650160,NOMAD,AWI/USIABP,MOSAiC,North
2020-07-13T03:00:00Z,1594609200,2020,3,0,195.125,195.125,79.38027,3.63771,-999.00,-999.00,-999.0,no,no,no,300534060650160,NOMAD,AWI/USIABP,MOSAiC,North
2020-07-13T03:09:56Z,1594609796,2020,3,10,195.1319,195.1319,79.39381,3.58982,-999.00,-999.00,-999.0,no,no,no,300534060650160,NOMAD,AWI/USIABP,MOSAiC,North
2020-07-13T03:20:00Z,1594610401,2020,3,20,195.1389,195.1389,79.40484,3.52459,-999.00,-999.00,-999.0,no,no,no,300534060650160,NOMAD,AWI/USIABP,MOSAiC,North
2020-07-13T03:29:57Z,1594610997,2020,3,30,195.1458,195.1458,79.41611,3.45965,-999.00,-999.00,-999.0,no,no,no,300534060650160,NOMAD,AWI/USIABP,MOSAiC,North
2020-07-13T03:40:01Z,1594611602,2020,3,40,195.1528,195.1528,79.42733,3.39301,-999.00,-999.00,-999.0,no,no,no,300534060650160,NOMAD,AWI/USIABP,MOSAiC,North
2020-07-13T03:49:58Z,1594612198,2020,3,50,195.1597,195.1597,79.43862,3.3269,-999.00,-999.00,-999.0,no,no,no,300534060650160,NOMAD,AWI/USIABP,MOSAiC,North
2020-07-13T04:00:02Z,1594612803,2020,4,0,195.1667,195.1667,79.45002,3.26064,-999.00,-999.00,-999.0,no,no,no,300534060650160,NOMAD,AWI/USIABP,MOSAiC,North
2020-07-13T04:09:59Z,1594613399,2020,4,10,195.1736,195.1736,79.46265,3.2554,-999.00,-999.00,-999.0,no,no,no,300534060650160,NOMAD,AWI/USIABP,MOSAiC,North
2020-07-13T04:20:03Z,1594614004,2020,4,20,195.1806,195.1806,79.47664,3.32734,-999.00,-999.00,-999.0,no,no,no,300534060650160,NOMAD,AWI/USIABP,MOSAiC,North
2020-07-13T04:30:00Z,1594614600,2020,4,30,195.1875,195.1875,79.47488,3.39955,-999.00,-999.00,-999.0,no,no,no,300534060650160,NOMAD,AWI/USIABP,MOSAiC,North
2020-07-13T04:39:56Z,1594615196,2020,4,40,195.1944,195.1944,79.46369,3.46624,-999.00,-999.00,-999.0,no,no,no,300534060650160,NOMAD,AWI/USIABP,MOSAiC,North
2020-07-13T04:50:00Z,1594615801,2020,4,50,195.2014,195.2014,79.45243,3.5313,-999.00,-999.00,-999.0,no,no,no,300534060650160,NOMAD,AWI/USIABP,MOSAiC,North
2020-07-13T04:59:57Z,1594616397,2020,5,0,195.2083,195.2083,79.44115,3.59803,-999.00,-999.00,-999.0,no,no,no,300534060650160,NOMAD,AWI/USIABP,MOSAiC,North
2020-07-13T05:10:01Z,1594617002,2020,5,10,195.2153,195.2153,79.42981,3.66419,-999.00,-999.00,-999.0,no,no,no,300534060650160,NOMAD,AWI/USIABP,MOSAiC,North
2020-07-13T05:19:58Z,1594617598,2020,5,20,195.2222,195.2222,79.41836,3.73004,-999.00,-999.00,-999.0,no,no,no,300534060650160,NOMAD,AWI/USIABP,MOSAiC,North
2020-07-13T05:30:02Z,1594618203,2020,5,30,195.2292,195.2292,79.41542,3.80363,-999.00,-999.00,-999.0,no,no,no,300534060650160,NOMAD,AWI/USIABP,MOSAiC,North
2020-07-13T05:39:59Z,1594618799,2020,5,40,195.2361,195.2361,79.43286,3.89262,-999.00,-999.00,-999.0,no,no,no,300534060650160,NOMAD,AWI/USIABP,MOSAiC,North
2020-07-13T05:50:03Z,1594619404,2020,5,50,195.2431,195.2431,79.44703,3.85476,-999.00,-999.00,-999.0,no,no,no,300534060650160,NOMAD,AWI/USIABP,MOSAiC,North
2020-07-13T06:00:00Z,1594620000,2020,6,0,195.25,195.25,79.45811,3.78448,-999.00,-999.00,-999.0,no,no,no,300534060650160,NOMAD,AWI/USIABP,MOSAiC,North
2020-07-13T06:09:56Z,1594620596,2020,6,10,195.2569,195.2569,79.4696,3.71883,-999.00,-999.00,-999.0,no,no,no,300534060650160,NOMAD,AWI/USIABP,MOSAiC,North
2020-07-13T06:20:00Z,1594621201,2020,6,20,195.2639,195.2639,79.48103,3.65149,-999.00,-999.00,-999.0,no,no,no,300534060650160,NOMAD,AWI/USIABP,MOSAiC,North
2020-07-13T06:29:57Z,1594621797,2020,6,30,195.2708,195.2708,79.49218,3.58464,-999.00,-999.00,-999.0,no,no,no,300534060650160,NOMAD,AWI/USIABP,MOSAiC,North
2020-07-13T06:40:01Z,1594622402,2020,6,40,195.2778,195.2778,79.50352,3.51819,-999.00,-999.00,-999.0,no,no,no,300534060650160,NOMAD,AWI/USIABP,MOSAiC,North
2020-07-13T06:49:58Z,1594622998,2020,6,50,195.2847,195.2847,79.5147,3.45155,-999.00,-999.00,-999.0,no,no,no,300534060650160,NOMAD,AWI/USIABP,MOSAiC,North
2020-07-13T07:00:02Z,1594623603,2020,7,0,195.2917,195.2917,79.5261,3.38426,-999.00,-999.00,-999.0,no,no,no,300534060650160,NOMAD,AWI/USIABP,MOSAiC,North
2020-07-13T07:09:59Z,1594624199,2020,7,10,195.2986,195.2986,79.53733,3.31727,-999.00,-999.00,-999.0,no,no,no,300534060650160,NOMAD,AWI/USIABP,MOSAiC,North
2020-07-13T07:20:03Z,1594624804,2020,7,20,195.3056,195.3056,79.54868,3.25053,-999.00,-999.00,-999.0,no,no,no,300534060650160,NOMAD,AWI/USIABP,MOSAiC,North
2020-07-13T07:30:00Z,1594625400,2020,7,30,195.3125,195.3125,79.55997,3.18517,-999.00,-999.00,-999.0,no,no,no,300534060650160,NOMAD,AWI/USIABP,MOSAiC,North
2020-07-13T07:39:56Z,1594625996,2020,7,40,195.3194,195.3194,79.55981,3.18608,-999.00,-999.00,-999.0,no,no,no,300534060650160,NOMAD,AWI/USIABP,MOSAiC,North
2020-07-13T07:50:00Z,1594626601,2020,7,50,195.3264,195.3264,79.5411,3.22125,-999.00,-999.00,-999.0,no,no,no,300534060650160,NOMAD,AWI/USIABP,MOSAiC,North
2020-07-13T07:59:57Z,1594627197,2020,8,0,195.3333,195.3333,79.51646,3.33501,-999.00,-999.00,-999.0,no,no,no,300534060650160,NOMAD,AWI/USIABP,MOSAiC,North
2020-07-13T08:10:01Z,1594627802,2020,8,10,195.3403,195.3403,79.50119,3.42901,-999.00,-999.00,-999.0,no,no,no,300534060650160,NOMAD,AWI/USIABP,MOSAiC,North
2020-07-13T08:19:58Z,1594628398,2020,8,20,195.3472,195.3472,79.50027,3.43535,-999.00,-999.00,-999.0,no,no,no,300534060650160,NOMAD,AWI/USIABP,MOSAiC,North
2020-07-13T08:30:02Z,1594629003,2020,8,30,195.3542,195.3542,79.50026,3.43538,-999.00,-999.00,-999.0,no,no,no,300534060650160,NOMAD,AWI/USIABP,MOSAiC,North
2020-07-13T08:39:59Z,1594629599,2020,8,40,195.3611,195.3611,79.50019,3.43482,-999.00,-999.00,-999.0,no,no,no,300534060650160,NOMAD,AWI/USIABP,MOSAiC,North
2020-07-13T08:50:03Z,1594630204,2020,8,50,195.3681,195.3681,79.50015,3.435,-999.00,-999.00,-999.0,no,no,no,300534060650160,NOMAD,AWI/USIABP,MOSAiC,North
2020-07-13T09:00:00Z,1594630800,2020,9,0,195.375,195.375,79.50026,3.43528,-999.00,-999.00,-999.0,no,no,no,300534060650160,NOMAD,AWI/USIABP,MOSAiC,North
2020-07-13T09:09:56Z,1594631396,2020,9,10,195.3819,195.3819,79.50007,3.43716,-999.00,-999.00,-999.0,no,no,no,300534060650160,NOMAD,AWI/USIABP,MOSAiC,North
2020-07-13T09:20:00Z,1594632001,2020,9,20,195.3889,195.3889,79.50855,3.43713,-999.00,-999.00,-999.0,no,no,no,300534060650160,NOMAD,AWI/USIABP,MOSAiC,North
2020-07-13T09:29:57Z,1594632597,2020,9,30,195.3958,195.3958,79.51881,3.43732,-999.00,-999.00,-999.0,no,no,no,300534060650160,NOMAD,AWI/USIABP,MOSAiC,North
2020-07-13T09:40:01Z,1594633202,2020,9,40,195.4028,195.4028,79.5256,3.46602,-999.00,-999.00,-999.0,no,no,no,300534060650160,NOMAD,AWI/USIABP,MOSAiC,North
2020-07-13T09:49:58Z,1594633798,2020,9,50,195.4097,195.4097,79.525,3.52783,-999.00,-999.00,-999.0,no,no,no,300534060650160,NOMAD,AWI/USIABP,MOSAiC,North
2020-07-13T10:00:02Z,1594634403,2020,10,0,195.4167,195.4167,79.51345,3.53477,-999.00,-999.00,-999.0,no,no,no,300534060650160,NOMAD,AWI/USIABP,MOSAiC,North
2020-07-13T10:09:59Z,1594634999,2020,10,10,195.4236,195.4236,79.50276,3.53527,-999.00,-999.00,-999.0,no,no,no,300534060650160,NOMAD,AWI/USIABP,MOSAiC,North
2020-07-13T10:20:03Z,1594635604,2020,10,20,195.4306,195.4306,79.50005,3.53368,-999.00,-999.00,-999.0,no,no,no,300534060650160,NOMAD,AWI/USIABP,MOSAiC,North
2020-07-13T10:30:00Z,1594636200,2020,10,30,195.4375,195.4375,79.50004,3.53397,-999.00,-999.00,-999.0,no,no,no,300534060650160,NOMAD,AWI/USIABP,MOSAiC,North
2020-07-13T10:39:56Z,1594636796,2020,10,40,195.4444,195.4444,79.50003,3.53382,-999.00,-999.00,-999.0,no,no,no,300534060650160,NOMAD,AWI/USIABP,MOSAiC,North
2020-07-13T10:50:00Z,1594637401,2020,10,50,195.4514,195.4514,79.49999,3.53373,-999.00,-999.00,-999.0,no,no,no,300534060650160,NOMAD,AWI/USIABP,MOSAiC,North
2020-07-13T10:59:57Z,1594637997,2020,11,0,195.4583,195.4583,79.49999,3.53404,-999.00,-999.00,-999.0,no,no,no,300534060650160,NOMAD,AWI/USIABP,MOSAiC,North
2020-07-13T11:10:01Z,1594638602,2020,11,10,195.4653,195.4653,79.50002,3.53361,-999.00,-999.00,-999.0,no,no,no,300534060650160,NOMAD,AWI/USIABP,MOSAiC,North
2020-07-13T11:19:58Z,1594639198,2020,11,20,195.4722,195.4722,79.50003,3.53346,-999.00,-999.00,-999.0,no,no,no,300534060650160,NOMAD,AWI/USIABP,MOSAiC,North
2020-07-13T11:30:02Z,1594639803,2020,11,30,195.4792,195.4792,79.50007,3.53355,-999.00,-999.00,-999.0,no,no,no,300534060650160,NOMAD,AWI/USIABP,MOSAiC,North
2020-07-13T11:39:59Z,1594640399,2020,11,40,195.4861,195.4861,79.50001,3.53379,-999.00,-999.00,-999.0,no,no,no,300534060650160,NOMAD,AWI/USIABP,MOSAiC,North
2020-07-13T11:50:03Z,1594641004,2020,11,50,195.4931,195.4931,79.50006,3.5337,-999.00,-999.00,-999.0,no,no,no,300534060650160,NOMAD,AWI/USIABP,MOSAiC,North
2020-07-13T12:00:00Z,1594641600,2020,12,0,195.5,195.5,79.50006,3.53414,-999.00,-999.00,-999.0,no,no,no,300534060650160,NOMAD,AWI/USIABP,MOSAiC,North
2020-07-13T12:09:56Z,1594642196,2020,12,10,195.5069,195.5069,79.50014,3.5333,-999.00,-999.00,-999.0,no,no,no,300534060650160,NOMAD,AWI/USIABP,MOSAiC,North
2020-07-13T12:20:00Z,1594642801,2020,12,20,195.5139,195.5139,79.50006,3.53391,-999.00,-999.00,-999.0,no,no,no,300534060650160,NOMAD,AWI/USIABP,MOSAiC,North
2020-07-13T12:29:57Z,1594643397,2020,12,30,195.5208,195.5208,79.50006,3.53346,-999.00,-999.00,-999.0,no,no,no,300534060650160,NOMAD,AWI/USIABP,MOSAiC,North
2020-07-13T12:40:01Z,1594644002,2020,12,40,195.5278,195.5278,79.49369,3.53406,-999.00,-999.00,-999.0,no,no,no,300534060650160,NOMAD,AWI/USIABP,MOSAiC,North
2020-07-13T12:49:58Z,1594644598,2020,12,50,195.5347,195.5347,79.48181,3.53483,-999.00,-999.00,-999.0,no,no,no,300534060650160,NOMAD,AWI/USIABP,MOSAiC,North
2020-07-13T13:00:02Z,1594645203,2020,13,0,195.5417,195.5417,79.47444,3.55992,-999.00,-999.00,-999.0,no,no,no,300534060650160,NOMAD,AWI/USIABP,MOSAiC,North
2020-07-13T13:09:59Z,1594645799,2020,13,10,195.5486,195.5486,79.47452,3.62241,-999.00,-999.00,-999.0,no,no,no,300534060650160,NOMAD,AWI/USIABP,MOSAiC,North
2020-07-13T13:20:03Z,1594646404,2020,13,20,195.5556,195.5556,79.48479,3.63308,-999.00,-999.00,-999.0,no,no,no,300534060650160,NOMAD,AWI/USIABP,MOSAiC,North
2020-07-13T13:30:00Z,1594647000,2020,13,30,195.5625,195.5625,79.49499,3.63346,-999.00,-999.00,-999.0,no,no,no,300534060650160,NOMAD,AWI/USIABP,MOSAiC,North
2020-07-13T13:39:56Z,1594647596,2020,13,40,195.5694,195.5694,79.49965,3.63357,-999.00,-999.00,-999.0,no,no,no,300534060650160,NOMAD,AWI/USIABP,MOSAiC,North
2020-07-13T13:50:00Z,1594648201,2020,13,50,195.5764,195.5764,79.4997,3.63373,-999.00,-999.00,-999.0,no,no,no,300534060650160,NOMAD,AWI/USIABP,MOSAiC,North
2020-07-13T13:59:57Z,1594648797,2020,14,0,195.5833,195.5833,79.49975,3.6332,-999.00,-999.00,-999.0,no,no,no,300534060650160,NOMAD,AWI/USIABP,MOSAiC,North
2020-07-13T14:10:01Z,1594649402,2020,14,10,195.5903,195.5903,79.49969,3.63347,-999.00,-999.00,-999.0,no,no,no,300534060650160,NOMAD,AWI/USIABP,MOSAiC,North
2020-07-13T14:19:58Z,1594649998,2020,14,20,195.5972,195.5972,79.4997,3.63333,-999.00,-999.00,-999.0,no,no,no,300534060650160,NOMAD,AWI/USIABP,MOSAiC,North
2020-07-13T14:30:02Z,1594650603,2020,14,30,195.6042,195.6042,79.49969,3.63349,-999.00,-999.00,-999.0,no,no,no,300534060650160,NOMAD,AWI/USIABP,MOSAiC,North
2020-07-13T14:39:59Z,1594651199,2020,14,40,195.6111,195.6111,79.49969,3.63374,-999.00,-999.00,-999.0,no,no,no,300534060650160,NOMAD,AWI/USIABP,MOSAiC,North
2020-07-13T14:50:03Z,1594651804,2020,14,50,195.6181,195.6181,79.49969,3.63346,-999.00,-999.00,-999.0,no,no,no,300534060650160,NOMAD,AWI/USIABP,MOSAiC,North
2020-07-13T15:00:00Z,1594652400,2020,15,0,195.625,195.625,79.49979,3.63318,-999.00,-999.00,-999.0,no,no,no,300534060650160,NOMAD,AWI/USIABP,MOSAiC,North
2020-07-13T15:09:56Z,1594652996,2020,15,10,195.6319,195.6319,79.49974,3.63271,-999.00,-999.00,-999.0,no,no,no,300534060650160,NOMAD,AWI/USIABP,MOSAiC,North
2020-07-13T15:20:00Z,1594653601,2020,15,20,195.6389,195.6389,79.49987,3.63198,-999.00,-999.00,-999.0,no,no,no,300534060650160,NOMAD,AWI/USIABP,MOSAiC,North
2020-07-13T15:29:57Z,1594654197,2020,15,30,195.6458,195.6458,79.49973,3.63382,-999.00,-999.00,-999.0,no,no,no,300534060650160,NOMAD,AWI/USIABP,MOSAiC,North
2020-07-13T15:40:01Z,1594654802,2020,15,40,195.6528,195.6528,79.49965,3.63351,-999.00,-999.00,-999.0,no,no,no,300534060650160,NOMAD,AWI/USIABP,MOSAiC,North
2020-07-13T15:49:58Z,1594655398,2020,15,50,195.6597,195.6597,79.49959,3.63423,-999.00,-999.00,-999.0,no,no,no,300534060650160,NOMAD,AWI/USIABP,MOSAiC,North
2020-07-13T16:00:02Z,1594656003,2020,16,0,195.6667,195.6667,79.49978,3.63315,-999.00,-999.00,-999.0,no,no,no,300534060650160,NOMAD,AWI/USIABP,MOSAiC,North
2020-07-13T16:09:59Z,1594656599,2020,16,10,195.6736,195.6736,79.49975,3.63346,-999.00,-999.00,-999.0,no,no,no,300534060650160,NOMAD,AWI/USIABP,MOSAiC,North
2020-07-13T16:20:03Z,1594657204,2020,16,20,195.6806,195.6806,79.49967,3.63342,-999.00,-999.00,-999.0,no,no,no,300534060650160,NOMAD,AWI/USIABP,MOSAiC,North
2020-07-13T16:30:00Z,1594657800,2020,16,30,195.6875,195.6875,79.49967,3.63361,-999.00,-999.00,-999.0,no,no,no,300534060650160,NOMAD,AWI/USIABP,MOSAiC,North
2020-07-13T16:39:56Z,1594658396,2020,16,40,195.6944,195.6944,79.4997,3.63337,-999.00,-999.00,-999.0,no,no,no,300534060650160,NOMAD,AWI/USIABP,MOSAiC,North
2020-07-13T16:50:00Z,1594659001,2020,16,50,195.7014,195.7014,79.49975,3.63371,-999.00,-999.00,-999.0,no,no,no,300534060650160,NOMAD,AWI/USIABP,MOSAiC,North
2020-07-13T16:59:57Z,1594659597,2020,17,0,195.7083,195.7083,79.4997,3.63295,-999.00,-999.00,-999.0,no,no,no,300534060650160,NOMAD,AWI/USIABP,MOSAiC,North
2020-07-13T17:10:01Z,1594660202,2020,17,10,195.7153,195.7153,79.49972,3.63338,-999.00,-999.00,-999.0,no,no,no,300534060650160,NOMAD,AWI/USIABP,MOSAiC,North
2020-07-13T17:19:58Z,1594660798,2020,17,20,195.7222,195.7222,79.49973,3.63296,-999.00,-999.00,-999.0,no,no,no,300534060650160,NOMAD,AWI/USIABP,MOSAiC,North
2020-07-13T17:30:02Z,1594661403,2020,17,30,195.7292,195.7292,79.49918,3.63322,-999.00,-999.00,-999.0,no,no,no,300534060650160,NOMAD,AWI/USIABP,MOSAiC,North
2020-07-13T17:39:59Z,1594661999,2020,17,40,195.7361,195.7361,79.49922,3.63373,-999.00,-999.00,-999.0,no,no,no,300534060650160,NOMAD,AWI/USIABP,MOSAiC,North
2020-07-13T17:50:03Z,1594662604,2020,17,50,195.7431,195.7431,79.49916,3.63408,-999.00,-999.00,-999.0,no,no,no,300534060650160,NOMAD,AWI/USIABP,MOSAiC,North
2020-07-13T18:00:00Z,1594663200,2020,18,0,195.75,195.75,79.4991,3.63267,-999.00,-999.00,-999.0,no,no,no,300534060650160,NOMAD,AWI/USIABP,MOSAiC,North
2020-07-13T18:09:56Z,1594663796,2020,18,10,195.7569,195.7569,79.49909,3.63045,-999.00,-999.00,-999.0,no,no,no,300534060650160,NOMAD,AWI/USIABP,MOSAiC,North
2020-07-13T18:20:00Z,1594664401,2020,18,20,195.7639,195.7639,79.50297,3.62853,-999.00,-999.00,-999.0,no,no,no,300534060650160,NOMAD,AWI/USIABP,MOSAiC,North